When you browse on this site, cookies collect data to enhance your experience and personalize the content and advertising you see.
Visit our Privacy Policy to learn more. By continuing to use the site, you agree to this use of cookies and data.
  • In Hungary
  • List of Countries
  • For 7 days
  • Water Temperature
  • Weather Map
  • News
  • Weather Widgets
  • user-avatar
    Login

    Hourly Weather Srednie Verezi

    Today, 18 August, Sunday

    Time Temperature Precipitation Wind Pressure Humidity
    00:00 +18°C° 0 mm 3 mps 752 mmHg 95%
    01:00 +18°C° 0 mm 3 mps 752 mmHg 95%
    02:00 +18°C° 0 mm 3 mps 752 mmHg 95%
    03:00 +18°C° 0 mm 3 mps 752 mmHg 94%
    04:00 +18°C° 0.1 mm 3 mps 752 mmHg 93%
    05:00 +19°C° 0.1 mm 4 mps 752 mmHg 91%
    06:00 +19°C° 0.1 mm 4 mps 752 mmHg 89%
    07:00 +21°C° 0 mm 4 mps 752 mmHg 86%
    08:00 +22°C° 0 mm 5 mps 752 mmHg 83%
    09:00 +23°C° 0 mm 5 mps 752 mmHg 80%
    10:00 +25°C° 0 mm 4 mps 752 mmHg 75%
    11:00 +27°C° 0 mm 4 mps 753 mmHg 70%
    12:00 +28°C° 0 mm 4 mps 753 mmHg 66%
    13:00 +28°C° 0 mm 4 mps 753 mmHg 63%
    14:00 +28°C° 0 mm 4 mps 753 mmHg 61%
    15:00 +29°C° 0 mm 3 mps 753 mmHg 58%
    16:00 +27°C° 0 mm 3 mps 753 mmHg 63%
    17:00 +26°C° 0 mm 3 mps 753 mmHg 69%
    18:00 +25°C° 0 mm 3 mps 753 mmHg 74%
    19:00 +24°C° 0 mm 3 mps 753 mmHg 72%
    20:00 +22°C° 0 mm 3 mps 753 mmHg 70%
    21:00 +22°C° 0 mm 3 mps 753 mmHg 68%
    22:00 +21°C° 0 mm 3 mps 753 mmHg 70%
    23:00 +21°C° 0 mm 3 mps 753 mmHg 72%

    Tomorrow, 19 August, Monday

    Time Temperature Precipitation Wind Pressure Humidity
    00:00 +20°C° 0 mm 3 mps 753 mmHg 74%
    01:00 +20°C° 0 mm 3 mps 753 mmHg 73%
    02:00 +20°C° 0 mm 3 mps 754 mmHg 73%
    03:00 +20°C° 0 mm 3 mps 754 mmHg 73%
    04:00 +20°C° 0 mm 3 mps 754 mmHg 71%
    05:00 +20°C° 0 mm 3 mps 754 mmHg 69%
    06:00 +20°C° 0 mm 3 mps 754 mmHg 68%
    07:00 +20°C° 0 mm 3 mps 754 mmHg 67%
    08:00 +20°C° 0 mm 3 mps 754 mmHg 67%
    09:00 +20°C° 0 mm 3 mps 754 mmHg 67%
    10:00 +22°C° 0 mm 4 mps 754 mmHg 66%
    11:00 +23°C° 0 mm 4 mps 754 mmHg 65%
    12:00 +26°C° 0 mm 4 mps 754 mmHg 63%
    13:00 +26°C° 0 mm 4 mps 754 mmHg 66%
    14:00 +26°C° 0 mm 3 mps 754 mmHg 69%
    15:00 +26°C° 0 mm 3 mps 754 mmHg 71%
    16:00 +26°C° 0 mm 3 mps 754 mmHg 73%
    17:00 +25°C° 0 mm 2 mps 754 mmHg 74%
    18:00 +25°C° 0 mm 2 mps 754 mmHg 75%
    19:00 +24°C° 0 mm 2 mps 754 mmHg 76%
    20:00 +23°C° 0 mm 2 mps 754 mmHg 77%
    21:00 +22°C° 0 mm 3 mps 754 mmHg 78%
    22:00 +21°C° 0.3 mm 3 mps 754 mmHg 82%
    23:00 +20°C° 0.3 mm 3 mps 754 mmHg 87%

    Day after tomorrow, 20 August, Tuesday

    Time Temperature Precipitation Wind Pressure Humidity
    00:00 +19°C° 0.3 mm 2 mps 754 mmHg 91%
    01:00 +19°C° 0.3 mm 2 mps 754 mmHg 92%
    02:00 +18°C° 0.3 mm 2 mps 754 mmHg 93%
    03:00 +18°C° 0.3 mm 2 mps 754 mmHg 95%
    04:00 +18°C° 0 mm 2 mps 755 mmHg 94%
    05:00 +18°C° 0 mm 2 mps 755 mmHg 93%
    06:00 +18°C° 0 mm 3 mps 755 mmHg 92%
    07:00 +19°C° 0 mm 3 mps 755 mmHg 88%
    08:00 +20°C° 0 mm 3 mps 755 mmHg 84%
    09:00 +22°C° 0 mm 4 mps 755 mmHg 80%
    10:00 +22°C° 0 mm 4 mps 755 mmHg 77%
    11:00 +23°C° 0 mm 4 mps 755 mmHg 74%
    12:00 +25°C° 0 mm 4 mps 755 mmHg 71%
    13:00 +25°C° 0 mm 4 mps 755 mmHg 69%
    14:00 +26°C° 0 mm 4 mps 755 mmHg 68%
    15:00 +26°C° 0 mm 4 mps 755 mmHg 67%
    16:00 +25°C° 0 mm 3 mps 755 mmHg 71%
    17:00 +24°C° 0 mm 3 mps 755 mmHg 76%
    18:00 +24°C° 0 mm 2 mps 755 mmHg 80%
    19:00 +21°C° 0 mm 2 mps 755 mmHg 84%
    20:00 +20°C° 0 mm 2 mps 755 mmHg 88%
    21:00 +19°C° 0 mm 2 mps 755 mmHg 91%
    22:00 +18°C° 0 mm 2 mps 755 mmHg 92%
    23:00 +18°C° 0 mm 2 mps 755 mmHg 94%

    21 August, Wednesday

    Time Temperature Precipitation Wind Pressure Humidity
    00:00 +17°C° 0 mm 2 mps 756 mmHg 95%
    01:00 +17°C° 0 mm 2 mps 756 mmHg 95%
    02:00 +17°C° 0 mm 2 mps 756 mmHg 95%
    03:00 +16°C° 0 mm 2 mps 756 mmHg 94%
    04:00 +17°C° 0 mm 2 mps 756 mmHg 94%
    05:00 +17°C° 0 mm 2 mps 756 mmHg 93%
    06:00 +17°C° 0 mm 3 mps 756 mmHg 92%
    07:00 +19°C° 0 mm 3 mps 756 mmHg 88%
    08:00 +21°C° 0 mm 3 mps 756 mmHg 83%
    09:00 +22°C° 0 mm 3 mps 757 mmHg 78%
    10:00 +24°C° 0 mm 3 mps 757 mmHg 75%
    11:00 +25°C° 0 mm 3 mps 757 mmHg 72%
    12:00 +25°C° 0 mm 3 mps 757 mmHg 69%
    13:00 +26°C° 0 mm 2 mps 757 mmHg 68%
    14:00 +26°C° 0 mm 2 mps 757 mmHg 67%
    15:00 +26°C° 0 mm 2 mps 757 mmHg 66%
    16:00 +26°C° 0 mm 2 mps 756 mmHg 70%
    17:00 +25°C° 0 mm 1 mps 756 mmHg 74%
    18:00 +24°C° 0 mm 1 mps 756 mmHg 78%
    19:00 +23°C° 0 mm 1 mps 756 mmHg 81%
    20:00 +22°C° 0 mm 1 mps 756 mmHg 84%
    21:00 +21°C° 0 mm 1 mps 757 mmHg 87%
    22:00 +21°C° 0 mm 1 mps 757 mmHg 88%
    23:00 +20°C° 0 mm 1 mps 756 mmHg 89%

    22 August, Thursday

    Time Temperature Precipitation Wind Pressure Humidity
    00:00 +20°C° 0 mm 1 mps 756 mmHg 90%
    01:00 +20°C° 0 mm 1 mps 756 mmHg 91%
    02:00 +19°C° 0 mm 1 mps 757 mmHg 92%
    03:00 +19°C° 0 mm 1 mps 757 mmHg 92%
    04:00 +19°C° 0 mm 1 mps 756 mmHg 93%
    05:00 +20°C° 0 mm 1 mps 756 mmHg 93%
    06:00 +20°C° 0 mm 1 mps 756 mmHg 93%
    07:00 +21°C° 0 mm 1 mps 756 mmHg 88%
    08:00 +22°C° 0 mm 1 mps 756 mmHg 84%
    09:00 +24°C° 0 mm 1 mps 756 mmHg 79%
    10:00 +25°C° 0 mm 1 mps 756 mmHg 73%
    11:00 +26°C° 0 mm 2 mps 756 mmHg 67%
    12:00 +26°C° 0 mm 2 mps 756 mmHg 60%
    13:00 +27°C° 0 mm 2 mps 755 mmHg 60%
    14:00 +27°C° 0 mm 2 mps 755 mmHg 59%
    15:00 +27°C° 0 mm 2 mps 755 mmHg 59%
    16:00 +26°C° 0 mm 2 mps 755 mmHg 64%
    17:00 +25°C° 0 mm 2 mps 754 mmHg 69%
    18:00 +24°C° 0 mm 1 mps 754 mmHg 74%
    19:00 +23°C° 0 mm 2 mps 754 mmHg 78%
    20:00 +21°C° 0 mm 2 mps 754 mmHg 81%
    21:00 +20°C° 0 mm 2 mps 754 mmHg 84%
    22:00 +20°C° 0 mm 2 mps 753 mmHg 86%
    23:00 +20°C° 0 mm 3 mps 753 mmHg 87%

    23 August, Friday

    Time Temperature Precipitation Wind Pressure Humidity
    00:00 +19°C° 0 mm 3 mps 753 mmHg 89%
    01:00 +19°C° 0.2 mm 3 mps 753 mmHg 91%
    02:00 +19°C° 0.2 mm 3 mps 753 mmHg 93%
    03:00 +19°C° 0.2 mm 3 mps 753 mmHg 95%
    04:00 +19°C° 0 mm 3 mps 753 mmHg 96%
    05:00 +19°C° 0 mm 3 mps 752 mmHg 96%
    06:00 +19°C° 0 mm 3 mps 752 mmHg 96%
    07:00 +19°C° 0 mm 4 mps 753 mmHg 94%
    08:00 +19°C° 0 mm 4 mps 753 mmHg 91%
    09:00 +19°C° 0 mm 4 mps 753 mmHg 89%
    10:00 +19°C° 0 mm 4 mps 753 mmHg 87%
    11:00 +19°C° 0 mm 4 mps 753 mmHg 86%
    12:00 +19°C° 0 mm 4 mps 753 mmHg 84%
    13:00 +20°C° 0 mm 4 mps 754 mmHg 81%
    14:00 +20°C° 0 mm 4 mps 754 mmHg 78%
    15:00 +21°C° 0 mm 3 mps 754 mmHg 75%
    16:00 +21°C° 0 mm 3 mps 754 mmHg 77%
    17:00 +20°C° 0 mm 3 mps 754 mmHg 78%
    18:00 +20°C° 0 mm 2 mps 754 mmHg 79%
    19:00 +18°C° 0 mm 2 mps 754 mmHg 81%
    20:00 +17°C° 0 mm 2 mps 754 mmHg 84%
    21:00 +16°C° 0 mm 2 mps 754 mmHg 86%
    22:00 +16°C° 0 mm 2 mps 754 mmHg 87%
    23:00 +15°C° 0 mm 2 mps 754 mmHg 88%
    Show more